Current Version              Previous Version:    01  02  03  04  05  06  07  08  09  10  11  12  13  14  15  16  17  18  19  20  21  22  23  24  25  26  27  28  29  30  
   31  32  33  34  35  36  37  38  39  40  41  42  43  44  45  46  47  48  49  50  51  52  53  54  55  56  57  58  59  60  

[Printable]
196
ASUS44 KFWD 212101
RWRTX
NORTH TEXAS HOURLY WEATHER ROUNDUP
NATIONAL WEATHER SERVICE FORT WORTH TX
400 PM CDT THU AUG 21 2014

NOTE: "FAIR" INDICATES FEW OR NO CLOUDS BELOW 12,000 FEET WITH NO
SIGNIFICANT WEATHER AND/OR OBSTRUCTIONS TO VISIBILITY.

TXZ118-119-212200-
DALLAS/FORT WORTH METROPLEX

CITY           SKY/WX    TMP DP  RH WIND       PRES   REMARKS
DFW AIRPORT    MOSUNNY   97  68  38 S17G24    29.95F HX 102
DALLAS LOVE    MOSUNNY   98  66  34 S17G23    29.95F HX 101
FTW MEACHAM    SUNNY    100  66  32 S20       29.94F HX 104
DAL-EXECUTIVE  SUNNY    100  63  29 S8G16     29.96F HX 102
FTW-ALLIANCE   MOSUNNY   96  66  37 S18G25    29.93F HX  99
FTW-NAS-JRB    MOSUNNY  103  63  27 S14G24    29.98F HX 105
FTW-SPINKS     SUNNY     99  64  32 S14G21    29.97F HX 101
ARLINGTON      SUNNY     98  64  32 S15G25    29.95F HX 100
GRAND PRAIRIE  SUNNY     97  63  32 SE12      29.97F HX  98
MESQUITE       SUNNY     99  59  26 S16       29.97  HX  98
LANCASTER      SUNNY     99  60  27 S12G17    29.97F HX  99
$$

TXZ091>094-102>105-117-120-121-131>134-212200-
NORTH CENTRAL TEXAS

CITY           SKY/WX    TMP DP  RH WIND       PRES   REMARKS
SHRMAN/DENISON MOSUNNY   95  68  41 S14       29.98F HX 100
GAINESVILLE    MOSUNNY   92  73  54 SE14G20   29.97F HX 100
BOWIE          SUNNY     96  70  42 SE13G22   29.94F HX 102
BRIDGEPORT     PTSUNNY   97  63  32 S10       29.95F HX  98
DECATUR        SUNNY     95  66  38 S14G23    29.95F HX  98
DENTON         MOSUNNY   96  68  39 S20G25    29.95F HX 101
MCKINNEY       SUNNY     97  68  38 S16       29.96F HX 102
ROCKWALL       SUNNY     97  65  35 S15G22    29.95F HX  99
TERRELL        SUNNY    100  60  26 SW15      29.97F HX 100
WAXAHACHIE     SUNNY     98  59  27 S15G22    29.98F HX  97
CLEBURNE       SUNNY     97  64  34 S13G18    29.98F HX  99
GRANBURY       SUNNY    100  61  27 SE13G23   29.95F HX 101
$$

TXZ083>090-098>101-113>116-127>130-139>142-154-155-212200-
WESTERN NORTH TEXAS

CITY           SKY/WX    TMP DP  RH WIND       PRES   REMARKS
WICHITA FALLS  PTSUNNY  102  65  29 S20G26    29.88F HX 105
WF-KICKAPOO    MOSUNNY  104  61  24 S15       29.90F HX 105
VERNON         SUNNY    103  60  24 SW15G23   29.90F HX 103
ABILENE        MOSUNNY   96  67  38 S20G28    29.97F HX 100
ABILENE-DYESS  MOSUNNY   97  68  38 S21       29.96F HX 102
BRECKENRIDGE   PTSUNNY   99  62  29 S18G24    29.93F HX 100
MINERAL WELLS  SUNNY     98  67  36 S14G22    29.93F HX 102
STEPHENVILLE   MOSUNNY   98  60  28 S10G18    30.00F HX  97
COMANCHE       SUNNY    100  51  19 S17G23    29.98F HX  97
BROWNWOOD      SUNNY     99  55  23 S17G24    29.98F HX  97
COLEMAN        SUNNY     94  61  33 S14G21    29.98F HX  94
BRADY          SUNNY     95  61  31 S13       30.00F HX  95
$$

TXZ143>147-156>162-174-175-212200-
CENTRAL TEXAS

CITY           SKY/WX    TMP DP  RH WIND       PRES   REMARKS
WACO           SUNNY    100  62  28 S22       29.97F HX 101
WACO-TSTC      SUNNY    100  57  23 SW25      29.97F HX  99
WACO-MCGREGOR  SUNNY    102  63  27 S18G25    29.96F HX 104
HILLSBORO      SUNNY     99  60  27 S15G24    29.97F HX  99
CORSICANA      SUNNY    100  59  25 S18       29.98F HX 100
MEXIA          SUNNY     98  64  33 S17       29.97F HX 100
HEARNE           N/A    100  65  31 S7G22     29.98F HX 103
CAMERON        SUNNY    101  65  30 S14G23    29.97F HX 104
TEMPLE         SUNNY    100  61  27 S17G31    29.98F HX 101
KILLEEN        MOSUNNY   99  61  28 S24       29.98F HX  99
KILLEEN-SKYLRK SUNNY    100  63  28 S20G25    29.98F HX 102
FORT HOOD      SUNNY    101  61  26 SE10G22   29.98F HX 102
HAMILTON       SUNNY    100  54  21 S14G28    30.00F HX  97
LAMPASAS       SUNNY     98  61  29 S10G22    29.99F HX  99
$$

TXZ095>097-106>112-122>126-135>138-148>153-164>167-212200-
EAST TEXAS

CITY           SKY/WX    TMP DP  RH WIND       PRES   REMARKS
PARIS          MOSUNNY   93  70  46 S12       30.00F HX  99
SULPHUR SPRNGS MOSUNNY   96  66  38 S8        30.01F HX  99
CLARKSVILLE      N/A     96  68  40 S10       30.00F HX 100
MOUNT PLEASANT MOSUNNY   96  65  36 SW9       30.02S HX  99
MINEOLA        MOSUNNY   97  64  34 S9        30.01F HX  99
TYLER          SUNNY     97  65  34 S13G24    30.01F HX  99
LONGVIEW       SUNNY     96  69  41 S10G23    30.01F HX 102
MARSHALL       SUNNY     96  73  46 S9        30.04F HX 105
ATHENS         SUNNY     93  66  40 S14       30.00F HX  96
PALESTINE      SUNNY     97  66  36 S10       30.02F HX 100
JACKSONVILLE   SUNNY     94  68  42 S10       30.05F HX  98
HENDERSON      MOSUNNY   94  69  43 S8        30.04F HX 100
NACOGDOCHES    MOSUNNY   93  72  49 S8G17     30.03F HX 100
LUFKIN         SUNNY     96  70  42 S10       30.03F HX 102
$$

SUPPLEMENTAL OBSERVATIONS (CENTRAL)

CITY           SKY/WX    TMP DP  RH WIND       PRES   REMARKS
$$

SUPPLEMENTAL OBSERVATIONS (WEST)

CITY           SKY/WX    TMP DP  RH WIND       PRES   REMARKS
$$

SUPPLEMENTAL OBSERVATIONS (EAST)

CITY           SKY/WX    TMP DP  RH WIND       PRES   REMARKS
$$

SUPPLEMENTAL OBSERVATIONS ARE A COLLECTION OF AUTOMATED INSTRUMENTS
THAT ARE MAINTAINED BY A VARIETY OF FEDERAL AND STATE AGENCIES.
CERTAIN ELEMENTS...SUCH AS HUMIDITY VALUES AND SUSTAINED WIND
SPEEDS...MAY BE APPROXIMATED.